AEE418 LFPG-EPWA

Flight info

Callsign AEE418
Flight time N/A
Altitude 37000
Route RANUX DCT VALEK DCT LIPNI DCT LIMGO DCT MASEK DCT ROBEL DCT POZUM DCT OLUMA DCT OBOKU DCT DOSIX DCT BIMPA
Aircraft A320/M-SDE3FGHIRWY/LB1

Departure

Time 2026-05-07 21:34
Airport Charles de Gaulle International Airport (LFPG)

Arrival

Time N/A
Airport Warsaw Chopin Airport (EPWA)
Time Latitude Longitude Altitude Speed Heading
2026-05-07 20:45 49.00177 2.56302 360 ft 0 kts 337°
2026-05-07 21:20 49.00166 2.56309 361 ft 4 kts 336°
2026-05-07 21:20 49.00142 2.56326 361 ft 4 kts 332°
2026-05-07 21:20 49.00119 2.56346 364 ft 4 kts 321°
2026-05-07 21:21 49.00102 2.56375 359 ft 4 kts 281°
2026-05-07 21:21 49.00101 2.56386 363 ft 0 kts 265°
2026-05-07 21:25 49.00101 2.56382 363 ft 1 kts 265°
2026-05-07 21:25 49.00100 2.56359 354 ft 3 kts 265°
2026-05-07 21:25 49.00098 2.56317 354 ft 5 kts 265°
2026-05-07 21:26 49.00094 2.56255 354 ft 7 kts 265°
2026-05-07 21:26 49.00090 2.56177 358 ft 8 kts 265°
2026-05-07 21:26 49.00085 2.56081 360 ft 10 kts 265°
2026-05-07 21:26 49.00079 2.55968 354 ft 12 kts 265°
2026-05-07 21:27 49.00074 2.55836 354 ft 13 kts 269°
2026-05-07 21:27 49.00072 2.55719 354 ft 11 kts 262°
2026-05-07 21:27 49.00044 2.55602 361 ft 12 kts 238°
2026-05-07 21:27 48.99973 2.55536 358 ft 14 kts 174°
2026-05-07 21:28 48.99883 2.55604 362 ft 16 kts 139°
2026-05-07 21:28 48.99832 2.55743 354 ft 13 kts 107°
2026-05-07 21:28 48.99773 2.55807 359 ft 11 kts 176°
2026-05-07 21:28 48.99710 2.55814 354 ft 4 kts 175°
2026-05-07 21:29 48.99698 2.55815 356 ft 1 kts 175°
2026-05-07 21:29 48.99693 2.55816 358 ft 1 kts 175°
2026-05-07 21:29 48.99682 2.55817 360 ft 0 kts 175°
2026-05-07 21:32 48.99675 2.55818 358 ft 2 kts 175°
2026-05-07 21:32 48.99641 2.55823 355 ft 6 kts 175°
2026-05-07 21:33 48.99602 2.55863 355 ft 8 kts 102°
2026-05-07 21:33 48.99607 2.55963 354 ft 10 kts 85°
2026-05-07 21:33 48.99619 2.56177 356 ft 45 kts 85°
2026-05-07 21:33 48.99662 2.56980 357 ft 105 kts 86°
2026-05-07 21:34 48.99734 2.58335 355 ft 150 kts 85°
2026-05-07 21:34 48.99835 2.60065 585 ft 168 kts 84°
2026-05-07 21:34 48.99935 2.61834 1201 ft 168 kts 86°
2026-05-07 21:34 49.00014 2.63609 1840 ft 168 kts 86°
2026-05-07 21:35 49.00108 2.65436 2277 ft 181 kts 85°
2026-05-07 21:35 49.00232 2.67445 2576 ft 200 kts 86°
2026-05-07 21:35 49.00350 2.69689 2820 ft 225 kts 86°
2026-05-07 21:35 49.00480 2.72184 3230 ft 247 kts 86°
2026-05-07 21:36 49.00619 2.74857 3886 ft 257 kts 85°
2026-05-07 21:36 49.00754 2.77579 4689 ft 263 kts 86°
2026-05-07 21:36 49.00892 2.80380 5491 ft 268 kts 85°
2026-05-07 21:36 49.01036 2.83274 6298 ft 272 kts 85°
2026-05-07 21:37 49.01181 2.86134 7038 ft 277 kts 85°
2026-05-07 21:37 49.01331 2.89093 7775 ft 282 kts 86°
2026-05-07 21:37 49.01483 2.92106 8495 ft 288 kts 86°
2026-05-07 21:37 49.01711 2.95170 9214 ft 294 kts 82°
2026-05-07 21:38 49.02044 2.98274 9910 ft 300 kts 81°
2026-05-07 21:38 49.02431 3.01441 10413 ft 312 kts 80°
2026-05-07 21:38 49.02853 3.04806 10580 ft 335 kts 80°
2026-05-07 21:38 49.03300 3.08411 10710 ft 357 kts 79°
2026-05-07 21:39 49.03757 3.12207 11076 ft 369 kts 80°
2026-05-07 21:39 49.04210 3.16077 11683 ft 373 kts 81°
2026-05-07 21:39 49.04662 3.19988 12314 ft 376 kts 81°
2026-05-07 21:39 49.05112 3.23934 12936 ft 380 kts 81°
2026-05-07 21:40 49.05562 3.27927 13562 ft 383 kts 81°
2026-05-07 21:40 49.06015 3.31948 14154 ft 387 kts 81°
2026-05-07 21:40 49.06473 3.36009 14708 ft 390 kts 81°
2026-05-07 21:40 49.06932 3.40098 15247 ft 393 kts 81°
2026-05-07 21:41 49.07394 3.44225 15789 ft 396 kts 81°
2026-05-07 21:41 49.07859 3.48381 16322 ft 399 kts 81°
2026-05-07 21:41 49.08320 3.52520 16862 ft 402 kts 81°
2026-05-07 21:41 49.08770 3.56756 17411 ft 406 kts 82°
2026-05-07 21:42 49.09133 3.61044 17976 ft 409 kts 84°
2026-05-07 21:42 49.09428 3.65379 18525 ft 412 kts 84°
2026-05-07 21:42 49.09691 3.69750 19034 ft 416 kts 85°
2026-05-07 21:42 49.09947 3.74167 19556 ft 419 kts 85°
2026-05-07 21:43 49.10209 3.78608 20069 ft 422 kts 85°
2026-05-07 21:43 49.10488 3.83092 20582 ft 425 kts 84°
2026-05-07 21:43 49.10777 3.87588 21056 ft 427 kts 84°
2026-05-07 21:43 49.11072 3.92067 21502 ft 430 kts 84°
2026-05-07 21:44 49.11374 3.96628 21947 ft 433 kts 84°
2026-05-07 21:44 49.11678 4.01215 22370 ft 435 kts 84°
2026-05-07 21:44 49.11982 4.05829 22795 ft 438 kts 84°
2026-05-07 21:44 49.12282 4.10465 23207 ft 441 kts 84°
2026-05-07 21:45 49.12579 4.15146 23614 ft 443 kts 85°
2026-05-07 21:45 49.12872 4.19846 23956 ft 446 kts 85°
2026-05-07 21:45 49.13163 4.24578 24272 ft 448 kts 85°
2026-05-07 21:45 49.13357 4.27726 24494 ft 449 kts 85°
2026-05-07 21:46 49.13666 4.32487 24811 ft 451 kts 82°
2026-05-07 21:46 49.14615 4.38695 25220 ft 454 kts 70°
2026-05-07 21:46 49.15791 4.43177 25525 ft 456 kts 66°
2026-05-07 21:46 49.16621 4.46201 25739 ft 457 kts 67°
2026-05-07 21:47 49.17836 4.50652 26044 ft 459 kts 67°
2026-05-07 21:47 49.19063 4.55183 26356 ft 462 kts 67°
2026-05-07 21:47 49.20290 4.59738 26666 ft 464 kts 67°
2026-05-07 21:47 49.21515 4.64302 27054 ft 464 kts 68°
2026-05-07 21:48 49.22739 4.68856 27542 ft 462 kts 67°
2026-05-07 21:48 49.23959 4.73396 27999 ft 460 kts 68°
2026-05-07 21:48 49.25174 4.77930 28460 ft 459 kts 68°
2026-05-07 21:48 49.26384 4.82451 28908 ft 459 kts 68°
2026-05-07 21:49 49.27590 4.86966 29346 ft 458 kts 68°
2026-05-07 21:49 49.28796 4.91474 29799 ft 457 kts 68°
2026-05-07 21:49 49.29998 4.95975 30242 ft 456 kts 68°
2026-05-07 21:49 49.31199 5.00472 30622 ft 456 kts 68°
2026-05-07 21:50 49.32393 5.04962 30992 ft 455 kts 68°
2026-05-07 21:50 49.33586 5.09465 31368 ft 455 kts 68°
2026-05-07 21:50 49.34757 5.13907 31742 ft 455 kts 68°
2026-05-07 21:50 49.35940 5.18410 32117 ft 455 kts 68°
2026-05-07 21:51 49.37121 5.22911 32488 ft 455 kts 68°
2026-05-07 21:51 49.38299 5.27410 32862 ft 455 kts 68°
2026-05-07 21:51 49.39477 5.31919 33231 ft 455 kts 68°
2026-05-07 21:51 49.40655 5.36425 33609 ft 454 kts 68°
2026-05-07 21:52 49.41832 5.40923 34026 ft 453 kts 68°
2026-05-07 21:52 49.43005 5.45414 34343 ft 453 kts 68°
2026-05-07 21:52 49.44177 5.49912 34618 ft 453 kts 68°
2026-05-07 21:52 49.45344 5.54414 34884 ft 453 kts 68°
2026-05-07 21:53 49.46506 5.58915 35140 ft 453 kts 68°
2026-05-07 21:53 49.47669 5.63422 35387 ft 453 kts 68°
2026-05-07 21:53 49.48832 5.67930 35631 ft 454 kts 68°
2026-05-07 21:53 49.49995 5.72442 35868 ft 454 kts 68°
2026-05-07 21:54 49.51140 5.76903 36099 ft 454 kts 68°
2026-05-07 21:54 49.52290 5.81434 36330 ft 454 kts 69°
2026-05-07 21:54 49.53404 5.85990 36547 ft 455 kts 69°
2026-05-07 21:54 49.54509 5.90566 36742 ft 456 kts 69°
2026-05-07 21:55 49.55619 5.95143 36959 ft 456 kts 69°
2026-05-07 21:55 49.56740 5.99728 37069 ft 458 kts 69°
2026-05-07 21:55 49.59024 6.09003 37097 ft 468 kts 69°
2026-05-07 21:56 49.61349 6.18426 37084 ft 471 kts 69°
2026-05-07 21:56 49.63686 6.27834 37084 ft 471 kts 65°
2026-05-07 21:57 49.66727 6.36789 37083 ft 471 kts 60°
2026-05-07 21:57 49.69856 6.45699 37086 ft 471 kts 60°
2026-05-07 21:58 49.72975 6.54618 37090 ft 472 kts 61°
2026-05-07 21:58 49.76079 6.63557 37094 ft 472 kts 61°
2026-05-07 21:59 49.79175 6.72514 37105 ft 472 kts 61°
2026-05-07 21:59 49.82249 6.81436 37095 ft 472 kts 61°
2026-05-07 22:00 49.85341 6.90427 37103 ft 472 kts 61°
2026-05-07 22:00 49.88422 6.99427 37098 ft 472 kts 61°
2026-05-07 22:01 49.91496 7.08450 37101 ft 473 kts 61°
2026-05-07 22:01 49.94563 7.17473 37103 ft 473 kts 61°
2026-05-07 22:02 49.97607 7.26452 37112 ft 473 kts 61°
2026-05-07 22:02 50.00655 7.35489 37104 ft 472 kts 62°
2026-05-07 22:03 50.03697 7.44547 37104 ft 472 kts 62°
2026-05-07 22:03 50.06733 7.53606 37109 ft 472 kts 62°
2026-05-07 22:04 50.09744 7.62631 37112 ft 472 kts 62°
2026-05-07 22:04 50.12765 7.71717 37120 ft 472 kts 62°
2026-05-07 22:05 50.15780 7.80827 37109 ft 472 kts 62°
2026-05-07 22:05 50.18787 7.89938 37124 ft 472 kts 62°
2026-05-07 22:06 50.21768 7.98978 37127 ft 471 kts 62°
2026-05-07 22:06 50.24755 8.08090 37130 ft 471 kts 62°
2026-05-07 22:07 50.27732 8.17208 37128 ft 471 kts 62°
2026-05-07 22:07 50.30702 8.26344 37129 ft 471 kts 62°
2026-05-07 22:08 50.33668 8.35473 37125 ft 470 kts 62°
2026-05-07 22:08 50.36630 8.44627 37138 ft 470 kts 62°
2026-05-07 22:09 50.39550 8.53711 37137 ft 469 kts 62°
2026-05-07 22:09 50.42478 8.62854 37134 ft 469 kts 63°
2026-05-07 22:10 50.45400 8.72003 37134 ft 469 kts 63°
2026-05-07 22:10 50.48317 8.81173 37127 ft 469 kts 63°
2026-05-07 22:11 50.51224 8.90333 37130 ft 469 kts 63°
2026-05-07 22:11 50.54127 8.99515 37143 ft 468 kts 63°
2026-05-07 22:12 50.56999 9.08639 37138 ft 468 kts 63°
2026-05-07 22:12 50.59882 9.17830 37134 ft 468 kts 63°
2026-05-07 22:13 50.62761 9.27025 37132 ft 468 kts 63°
2026-05-07 22:13 50.65628 9.36225 37124 ft 467 kts 63°
2026-05-07 22:14 50.68482 9.45437 37135 ft 467 kts 63°
2026-05-07 22:14 50.71307 9.54609 37134 ft 467 kts 63°
2026-05-07 22:15 50.73798 9.64074 37133 ft 468 kts 71°
2026-05-07 22:15 50.75799 9.73861 37132 ft 468 kts 71°
2026-05-07 22:16 50.77792 9.83658 37137 ft 468 kts 72°
2026-05-07 22:16 50.79775 9.93461 37133 ft 468 kts 72°
2026-05-07 22:17 50.81746 10.03232 37135 ft 468 kts 72°
2026-05-07 22:17 50.83714 10.13050 37134 ft 469 kts 72°
2026-05-07 22:18 50.86654 10.27823 37136 ft 469 kts 72°
2026-05-07 22:19 50.88602 10.37672 37148 ft 469 kts 72°
2026-05-07 22:19 50.90563 10.47515 37140 ft 468 kts 71°
2026-05-07 22:20 50.92649 10.57303 37140 ft 468 kts 70°
2026-05-07 22:20 50.94758 10.66995 37136 ft 468 kts 70°
2026-05-07 22:21 50.96855 10.76777 37132 ft 468 kts 71°
2026-05-07 22:21 50.98914 10.86575 37130 ft 468 kts 71°
2026-05-07 22:22 51.00948 10.96320 37127 ft 468 kts 71°
2026-05-07 22:22 51.02991 11.06136 37129 ft 468 kts 71°
2026-05-07 22:23 51.05029 11.15967 37143 ft 467 kts 71°
2026-05-07 22:23 51.07053 11.25781 37152 ft 467 kts 71°
2026-05-07 22:24 51.09063 11.35540 37156 ft 467 kts 71°
2026-05-07 22:24 51.11076 11.45374 37146 ft 467 kts 71°
2026-05-07 22:25 51.13077 11.55199 37147 ft 467 kts 71°
2026-05-07 22:25 51.15081 11.65066 37148 ft 467 kts 72°
2026-05-07 22:26 51.17051 11.74852 37151 ft 467 kts 72°
2026-05-07 22:26 51.19024 11.84716 37151 ft 467 kts 72°
2026-05-07 22:27 51.20987 11.94576 37158 ft 466 kts 72°
2026-05-07 22:27 51.22941 12.04454 37148 ft 466 kts 72°
2026-05-07 22:28 51.24891 12.14327 37146 ft 466 kts 72°
2026-05-07 22:28 51.26838 12.24212 37142 ft 466 kts 72°
2026-05-07 22:29 51.28773 12.34108 37141 ft 467 kts 72°
2026-05-07 22:29 51.30686 12.43956 37141 ft 467 kts 72°
2026-05-07 22:30 51.32609 12.53879 37140 ft 467 kts 72°
2026-05-07 22:30 51.34523 12.63818 37145 ft 467 kts 73°
2026-05-07 22:31 51.36418 12.73727 37122 ft 469 kts 73°
2026-05-07 22:31 51.38323 12.83734 37138 ft 470 kts 73°
2026-05-07 22:32 51.40219 12.93759 37150 ft 469 kts 73°
2026-05-07 22:32 51.42098 13.03756 37152 ft 468 kts 73°
2026-05-07 22:33 51.43976 13.13748 37149 ft 468 kts 73°
2026-05-07 22:33 51.45831 13.23670 37147 ft 468 kts 73°
2026-05-07 22:34 51.47685 13.33667 37148 ft 467 kts 73°
2026-05-07 22:34 51.49529 13.43686 37145 ft 467 kts 74°
2026-05-07 22:35 51.51361 13.53709 37152 ft 467 kts 74°
2026-05-07 22:35 51.53182 13.63720 37148 ft 467 kts 74°
2026-05-07 22:36 51.54992 13.73671 37148 ft 467 kts 74°
2026-05-07 22:36 51.56803 13.83707 37144 ft 467 kts 74°
2026-05-07 22:37 51.58302 13.92052 37145 ft 467 kts 74°
2026-05-07 22:37 51.60095 14.02129 37142 ft 467 kts 75°
2026-05-07 22:38 51.61880 14.12182 37144 ft 467 kts 75°
2026-05-07 22:38 51.63664 14.22254 37144 ft 467 kts 75°
2026-05-07 22:39 51.65420 14.32255 37148 ft 467 kts 75°
2026-05-07 22:39 51.67186 14.42352 37146 ft 467 kts 75°
2026-05-07 22:40 51.68938 14.52429 37144 ft 467 kts 75°
2026-05-07 22:40 51.70658 14.62449 37143 ft 467 kts 75°
2026-05-07 22:41 51.72388 14.72544 37134 ft 467 kts 75°
2026-05-07 22:41 51.74132 14.82650 37135 ft 468 kts 75°
2026-05-07 22:42 51.75873 14.92779 37136 ft 468 kts 75°
2026-05-07 22:42 51.77600 15.02917 37137 ft 469 kts 75°
2026-05-07 22:43 51.79315 15.13072 37145 ft 469 kts 75°
2026-05-07 22:43 51.81016 15.23236 37131 ft 469 kts 76°
2026-05-07 22:44 51.82710 15.33355 37130 ft 469 kts 76°
2026-05-07 22:44 51.84410 15.43538 37131 ft 469 kts 76°
2026-05-07 22:45 51.86095 15.53738 37133 ft 469 kts 76°
2026-05-07 22:45 51.87768 15.63940 37135 ft 469 kts 76°
2026-05-07 22:46 51.89430 15.74175 37137 ft 469 kts 76°
2026-05-07 22:46 51.91119 15.84386 37120 ft 470 kts 76°
2026-05-07 22:47 51.92852 15.94598 37129 ft 470 kts 76°
2026-05-07 22:47 51.94571 16.04818 37131 ft 470 kts 76°
2026-05-07 22:48 51.96278 16.15073 37136 ft 470 kts 76°
2026-05-07 22:48 51.97957 16.25259 37134 ft 470 kts 76°
2026-05-07 22:49 51.99640 16.35535 37119 ft 471 kts 77°
2026-05-07 22:49 52.01314 16.45812 37122 ft 471 kts 77°
2026-05-07 22:50 52.02986 16.56098 37123 ft 471 kts 77°
2026-05-07 22:50 52.04639 16.66401 37129 ft 471 kts 77°
2026-05-07 22:51 52.06278 16.76656 37140 ft 472 kts 77°
2026-05-07 22:51 52.07924 16.86972 37138 ft 471 kts 77°
2026-05-07 22:52 52.09555 16.97301 37118 ft 471 kts 77°
2026-05-07 22:52 52.11174 17.07657 37129 ft 472 kts 78°
2026-05-07 22:53 52.12789 17.18006 37129 ft 472 kts 77°
2026-05-07 22:53 52.14403 17.28369 37136 ft 472 kts 78°
2026-05-07 22:54 52.15995 17.38744 37134 ft 472 kts 78°
2026-05-07 22:54 52.17573 17.49064 37126 ft 472 kts 78°
2026-05-07 22:55 52.18826 17.59528 37012 ft 468 kts 93°
2026-05-07 22:55 52.18615 17.64774 36757 ft 464 kts 98°
2026-05-07 22:55 52.18298 17.70003 36504 ft 464 kts 99°
2026-05-07 22:55 52.17965 17.75250 36254 ft 464 kts 99°
2026-05-07 22:56 52.17627 17.80469 36004 ft 464 kts 99°
2026-05-07 22:56 52.17286 17.85695 35758 ft 464 kts 100°
2026-05-07 22:56 52.16941 17.90922 35516 ft 464 kts 100°
2026-05-07 22:56 52.16596 17.96147 35275 ft 464 kts 100°
2026-05-07 22:57 52.16253 18.01366 35006 ft 463 kts 101°
2026-05-07 22:57 52.15911 18.06589 34770 ft 462 kts 101°
2026-05-07 22:57 52.15576 18.11727 34538 ft 461 kts 101°
2026-05-07 22:57 52.15234 18.16915 34307 ft 461 kts 101°
2026-05-07 22:58 52.14889 18.22103 34063 ft 461 kts 102°
2026-05-07 22:58 52.14541 18.27283 33793 ft 460 kts 102°
2026-05-07 22:58 52.14191 18.32471 33514 ft 460 kts 102°
2026-05-07 22:58 52.13838 18.37649 33237 ft 459 kts 102°
2026-05-07 22:59 52.13482 18.42814 32962 ft 458 kts 102°
2026-05-07 22:59 52.13123 18.47963 32700 ft 458 kts 102°
2026-05-07 22:59 52.12763 18.53100 32391 ft 455 kts 103°
2026-05-07 22:59 52.12404 18.58196 32128 ft 452 kts 103°
2026-05-07 23:00 52.12045 18.63286 31864 ft 451 kts 103°
2026-05-07 23:00 52.11688 18.68347 31607 ft 450 kts 103°
2026-05-07 23:00 52.11328 18.73413 31350 ft 450 kts 103°
2026-05-07 23:00 52.10965 18.78462 31099 ft 449 kts 103°
2026-05-07 23:01 52.10605 18.83440 30844 ft 449 kts 104°
2026-05-07 23:01 52.10239 18.88471 30598 ft 448 kts 104°
2026-05-07 23:01 52.09877 18.93472 30353 ft 430 kts 104°
2026-05-07 23:01 52.09562 18.98181 30094 ft 410 kts 104°
2026-05-07 23:02 52.09273 19.02731 29748 ft 399 kts 104°
2026-05-07 23:02 52.08998 19.07177 29502 ft 389 kts 104°
2026-05-07 23:02 52.08736 19.11490 29290 ft 378 kts 104°